Retour au catalogue

VRSS-1

ActifScienceSSO
NORAD 38782·PAYLOAD·🇻🇪 Venezuela

Lancé Sep 29, 2012 depuis Jiuquan Satellite Launch Center

Loading…

Prochains Passages (prochaines 24 heures)

TLE

FraisSource: Space-Track

Époque: Sep 14, 2026, 14:12 UTC

1 38782U 12052A   26257.59181278  .00000114  00000-0  21547-4 0  9990
2 38782  97.6265 229.4011 0016665 308.8209  51.1515 14.80154150752830

Suivez VRSS-1 en temps réel avec AllMySat

Download on the App Store